| time (UTC) | temp F | wind direction | speed MPH | gust MPH | rain 1hr in | rain 24hr in | rain mn in | humidity % | barometer mb |
| 20260507073506 | 61 | 19 | 1.0 | 5.0 | 0.00 | 0.00 | 0.00 | 88 | 1015.1 |
| 20260507073009 | 61 | 18 | 0.0 | 5.0 | 0.00 | 0.00 | 0.00 | 88 | 1015.3 |
| 20260507072509 | 61 | 65 | 0.0 | 5.0 | 0.00 | 0.00 | 0.00 | 88 | 1015.3 |
| 20260507072006 | 61 | 78 | 0.0 | 5.0 | 0.00 | 0.00 | 0.00 | 88 | 1015.0 |
| 20260507071519 | 61 | 290 | 0.0 | 3.0 | 0.00 | 0.00 | 0.00 | 88 | 1014.9 |
| 20260507071005 | 61 | 12 | 0.0 | 4.0 | 0.00 | 0.00 | 0.00 | 88 | 1014.7 |
| 20260507070507 | 61 | 14 | 0.0 | 4.0 | 0.00 | 0.00 | 0.00 | 88 | 1014.7 |
| 20260507070019 | 61 | 15 | 1.0 | 4.0 | 0.00 | 0.00 | 0.00 | 88 | 1014.8 |
| 20260507065508 | 61 | 11 | 1.0 | 4.0 | 0.00 | 0.00 | 0.00 | 88 | 1014.5 |
| 20260507065008 | 62 | 19 | 2.0 | 4.0 | 0.00 | 0.00 | 0.00 | 87 | 1014.3 |
| 20260507064007 | 62 | 17 | 0.0 | 5.0 | 0.00 | 0.01 | 0.00 | 87 | 1014.9 |
| 20260507063508 | 62 | 39 | 1.0 | 5.0 | 0.00 | 0.01 | 0.00 | 87 | 1014.9 |
| 20260507063007 | 62 | 17 | 0.0 | 5.0 | 0.00 | 0.01 | 0.00 | 87 | 1014.9 |
| 20260507062505 | 62 | 11 | 1.0 | 5.0 | 0.00 | 0.01 | 0.00 | 87 | 1015.0 |
| 20260507062007 | 63 | 42 | 0.0 | 4.0 | 0.00 | 0.01 | 0.00 | 87 | 1014.8 |
| 20260507061514 | 63 | 11 | 0.0 | 3.0 | 0.00 | 0.01 | 0.00 | 87 | 1014.6 |
| 20260507061012 | 63 | 11 | 0.0 | 3.0 | 0.00 | 0.01 | 0.00 | 87 | 1014.5 |
| 20260507060505 | 63 | 12 | 0.0 | 3.0 | 0.00 | 0.01 | 0.00 | 86 | 1014.7 |
| 20260507060022 | 63 | 20 | 0.0 | 4.0 | 0.00 | 0.01 | 0.00 | 86 | 1014.6 |
| 20260507055508 | 63 | 12 | 0.0 | 5.0 | 0.00 | 0.01 | 0.00 | 86 | 1014.9 |
| 20260507055007 | 63 | 17 | 0.0 | 5.0 | 0.00 | 0.01 | 0.00 | 86 | 1014.9 |
| 20260507054518 | 64 | 5 | 0.0 | 3.0 | 0.00 | 0.01 | 0.00 | 86 | 1015.0 |
| 20260507054008 | 64 | 15 | 0.0 | 4.0 | 0.00 | 0.01 | 0.00 | 86 | 1015.0 |
| 20260507053511 | 64 | 35 | 0.0 | 4.0 | 0.00 | 0.01 | 0.00 | 86 | 1015.0 |
| 20260507053019 | 64 | 49 | 0.0 | 2.0 | 0.00 | 0.01 | 0.00 | 86 | 1014.7 |
| 20260507052506 | 64 | 11 | 0.0 | 3.0 | 0.00 | 0.01 | 0.00 | 86 | 1014.7 |
| 20260507051519 | 65 | 26 | 0.0 | 2.0 | 0.00 | 0.01 | 0.00 | 86 | 1014.7 |
| 20260507051008 | 65 | 39 | 0.0 | 3.0 | 0.00 | 0.01 | 0.00 | 86 | 1014.5 |
| 20260507050036 | 65 | 25 | 0.0 | 4.0 | 0.00 | 0.01 | 0.00 | 86 | 1014.0 |
| 20260507045508 | 65 | 12 | 1.0 | 4.0 | 0.00 | 0.01 | 0.01 | 86 | 1014.0 |
| 20260507045007 | 66 | 13 | 0.0 | 2.0 | 0.00 | 0.01 | 0.01 | 86 | 1014.2 |
| 20260507044523 | 66 | 13 | 0.0 | 2.0 | 0.00 | 0.01 | 0.01 | 86 | 1014.3 |
| 20260507044007 | 66 | 13 | 0.0 | 4.0 | 0.00 | 0.01 | 0.01 | 86 | 1014.4 |
| 20260507043507 | 66 | 9 | 0.0 | 4.0 | 0.00 | 0.01 | 0.01 | 86 | 1014.5 |
| 20260507043004 | 66 | 17 | 0.0 | 4.0 | 0.00 | 0.01 | 0.01 | 86 | 1014.4 |
| 20260507042503 | 67 | 11 | 0.0 | 4.0 | 0.00 | 0.01 | 0.01 | 86 | 1014.2 |
| 20260507042003 | 67 | 26 | 1.0 | 4.0 | 0.00 | 0.01 | 0.01 | 86 | 1014.2 |
| 20260507041508 | 67 | 18 | 0.0 | 4.0 | 0.00 | 0.01 | 0.01 | 87 | 1014.1 |
| 20260507041004 | 67 | 13 | 0.0 | 2.0 | 0.00 | 0.01 | 0.01 | 87 | 1014.1 |
| 20260507040504 | 68 | 5 | 0.0 | 5.0 | 0.00 | 0.01 | 0.01 | 87 | 1014.1 |
| 20260507040016 | 68 | 11 | 1.0 | 5.0 | 0.00 | 0.01 | 0.01 | 87 | 1014.0 |
| 20260507035506 | 68 | 13 | 0.0 | 4.0 | 0.00 | 0.01 | 0.01 | 87 | 1013.9 |
| 20260507035011 | 68 | 11 | 0.0 | 3.0 | 0.00 | 0.01 | 0.01 | 87 | 1013.6 |
| 20260507034516 | 68 | 13 | 0.0 | 3.0 | 0.00 | 0.01 | 0.01 | 87 | 1013.6 |
| 20260507034010 | 69 | 10 | 0.0 | 2.0 | 0.00 | 0.01 | 0.01 | 87 | 1013.7 |
| 20260507033503 | 69 | 16 | 0.0 | 2.0 | 0.00 | 0.01 | 0.01 | 87 | 1013.5 |
| 20260507033004 | 69 | 15 | 0.0 | 3.0 | 0.00 | 0.01 | 0.01 | 87 | 1013.4 |
| 20260507032504 | 69 | 360 | 1.0 | 7.0 | 0.00 | 0.01 | 0.01 | 87 | 1013.5 |
| 20260507032003 | 69 | 360 | 1.0 | 7.0 | 0.00 | 0.01 | 0.01 | 87 | 1013.3 |
| 20260507031508 | 70 | 20 | 0.0 | 4.0 | 0.00 | 0.01 | 0.01 | 87 | 1013.2 |
| 20260507031004 | 70 | 11 | 0.0 | 3.0 | 0.00 | 0.01 | 0.01 | 87 | 1013.1 |
| 20260507030504 | 70 | 10 | 0.0 | 4.0 | 0.00 | 0.01 | 0.01 | 87 | 1013.1 |
| 20260507030014 | 70 | 11 | 0.0 | 4.0 | 0.00 | 0.01 | 0.01 | 87 | 1013.1 |
| 20260507025503 | 70 | 13 | 0.0 | 4.0 | 0.00 | 0.01 | 0.01 | 87 | 1012.9 |
| 20260507025008 | 70 | 10 | 0.0 | 3.0 | 0.00 | 0.01 | 0.01 | 87 | 1012.8 |
| 20260507024518 | 70 | 10 | 0.0 | 3.0 | 0.00 | 0.01 | 0.01 | 87 | 1012.7 |
| 20260507024007 | 70 | 10 | 1.0 | 3.0 | 0.00 | 0.01 | 0.01 | 87 | 1012.5 |
| 20260507023506 | 71 | 13 | 0.0 | 3.0 | 0.00 | 0.01 | 0.01 | 87 | 1012.4 |
| 20260507023017 | 71 | 18 | 0.0 | 3.0 | 0.00 | 0.01 | 0.01 | 87 | 1012.3 |
| 20260507022507 | 71 | 11 | 0.0 | 2.0 | 0.00 | 0.01 | 0.01 | 86 | 1012.4 |
| 20260507022007 | 71 | 19 | 0.0 | 3.0 | 0.00 | 0.01 | 0.01 | 86 | 1012.3 |
| 20260507021512 | 71 | 9 | 0.0 | 3.0 | 0.00 | 0.01 | 0.01 | 86 | 1012.2 |
| 20260507021004 | 71 | 20 | 0.0 | 5.0 | 0.00 | 0.01 | 0.01 | 86 | 1012.2 |
| 20260507020504 | 72 | 12 | 0.0 | 5.0 | 0.00 | 0.01 | 0.01 | 86 | 1012.1 |
| 20260507020014 | 72 | 29 | 0.0 | 2.0 | 0.00 | 0.01 | 0.01 | 86 | 1012.1 |
| 20260507015506 | 72 | 0.0 | 3.0 | 0.00 | 0.01 | 0.01 | 85 | 1011.9 | |
| 20260507015006 | 72 | 32 | 0.0 | 3.0 | 0.00 | 0.01 | 0.01 | 85 | 1011.9 |
| 20260507014520 | 72 | 33 | 0.0 | 3.0 | 0.00 | 0.01 | 0.01 | 85 | 1011.8 |
| 20260507014010 | 73 | 28 | 0.0 | 3.0 | 0.00 | 0.01 | 0.01 | 84 | 1011.8 |
| 20260507013508 | 73 | 11 | 0.0 | 4.0 | 0.00 | 0.01 | 0.01 | 84 | 1011.8 |
| 20260507013019 | 73 | 360 | 1.0 | 4.0 | 0.00 | 0.01 | 0.01 | 84 | 1011.5 |
| 20260507012512 | 74 | 360 | 0.0 | 4.0 | 0.00 | 0.01 | 0.01 | 83 | 1011.4 |
| 20260507012008 | 74 | 9 | 2.0 | 4.0 | 0.00 | 0.01 | 0.01 | 83 | 1011.1 |
| 20260507011529 | 75 | 11 | 0.0 | 3.0 | 0.00 | 0.01 | 0.01 | 82 | 1011.1 |
| 20260507011008 | 75 | 19 | 0.0 | 3.0 | 0.00 | 0.01 | 0.01 | 82 | 1011.1 |
| 20260507010513 | 75 | 16 | 0.0 | 5.0 | 0.00 | 0.01 | 0.01 | 81 | 1010.8 |
| 20260507010008 | 76 | 19 | 0.0 | 5.0 | 0.00 | 0.01 | 0.01 | 81 | 1010.8 |
| 20260507005506 | 77 | 360 | 1.0 | 3.0 | 0.00 | 0.01 | 0.01 | 80 | 1010.7 |
| 20260507005007 | 77 | 14 | 0.0 | 3.0 | 0.00 | 0.01 | 0.01 | 80 | 1010.7 |
| 20260507004513 | 78 | 24 | 1.0 | 3.0 | 0.00 | 0.01 | 0.01 | 80 | 1010.6 |
| 20260507004005 | 79 | 24 | 0.0 | 4.0 | 0.00 | 0.01 | 0.01 | 80 | 1010.4 |
| 20260507003507 | 80 | 9 | 1.0 | 0.0 | 0.00 | 0.01 | 0.01 | 81 | 1010.2 |
| 20260507001008 | 0 | 0.0 | 0.0 | 0.00 | 0.01 | 0.01 | 1009.8 | ||
| 20260507000512 | 0 | 0.0 | 0.0 | 0.00 | 0.01 | 0.01 | 1009.8 | ||
| 20260507000032 | 0 | 0.0 | 0.0 | 0.00 | 0.01 | 0.01 | 1009.9 | ||
| 20260506235509 | 0 | 0.0 | 0.0 | 0.00 | 0.01 | 0.01 | 1009.8 | ||
| 20260506235016 | 0 | 0.0 | 0.0 | 0.00 | 0.01 | 0.01 | 1009.8 | ||
| 20260506234527 | 0 | 0.0 | 0.0 | 0.00 | 0.01 | 0.01 | 1009.7 | ||
| 20260506234007 | 0 | 0.0 | 0.0 | 0.00 | 0.01 | 0.01 | 1009.6 | ||
| 20260506233507 | 0 | 0.0 | 0.0 | 0.00 | 0.01 | 0.01 | 1009.7 | ||
| 20260506233026 | 0 | 0.0 | 0.0 | 0.00 | 0.01 | 0.01 | 1009.5 | ||
| 20260506232507 | 0 | 0.0 | 0.0 | 0.00 | 0.01 | 0.01 | 1009.4 | ||
| 20260506231529 | 0 | 0.0 | 0.0 | 0.00 | 0.01 | 0.01 | 1009.4 | ||
| 20260506225515 | 0 | 0.0 | 0.0 | 0.00 | 0.01 | 0.01 | 1009.3 | ||
| 20260506225010 | 0 | 0.0 | 0.0 | 0.00 | 0.01 | 0.01 | 1009.3 | ||
| 20260506224526 | 0 | 0.0 | 0.0 | 0.00 | 0.01 | 0.01 | 1009.2 | ||
| 20260506224010 | 0 | 0.0 | 0.0 | 0.00 | 0.01 | 0.01 | 1009.1 | ||
| 20260506223515 | 0 | 0.0 | 0.0 | 0.00 | 0.01 | 0.01 | 1009.2 | ||
| 20260506223027 | 0 | 0.0 | 0.0 | 0.00 | 0.01 | 0.01 | 1009.2 | ||
| 20260506222508 | 0 | 0.0 | 0.0 | 0.00 | 0.01 | 0.01 | 1009.0 | ||
| 20260506222013 | 0 | 0.0 | 0.0 | 0.00 | 0.01 | 0.01 | 1009.2 | ||
| 20260506221526 | 0 | 0.0 | 0.0 | 0.00 | 0.01 | 0.01 | 1009.2 | ||
| 20260506221012 | 0 | 0.0 | 0.0 | 0.00 | 0.01 | 0.01 | 1009.1 | ||
| 20260506220510 | 0 | 0.0 | 0.0 | 0.00 | 0.01 | 0.01 | 1009.0 | ||
| 20260506220035 | 0 | 0.0 | 0.0 | 0.00 | 0.01 | 0.01 | 1009.1 | ||
| 20260506215511 | 0 | 0.0 | 0.0 | 0.00 | 0.01 | 0.01 | 1009.1 | ||
| 20260506215012 | 0 | 0.0 | 0.0 | 0.00 | 0.01 | 0.01 | 1009.2 | ||
| 20260506214528 | 0 | 0.0 | 0.0 | 0.00 | 0.01 | 0.01 | 1009.3 | ||
| 20260506214011 | 0 | 0.0 | 0.0 | 0.00 | 0.01 | 0.01 | 1009.2 | ||
| 20260506213514 | 0 | 0.0 | 0.0 | 0.00 | 0.01 | 0.01 | 1009.3 | ||
| 20260506213031 | 0 | 0.0 | 0.0 | 0.00 | 0.01 | 0.01 | 1009.4 | ||
| 20260506212510 | 0 | 0.0 | 0.0 | 0.00 | 0.01 | 0.01 | 1009.5 | ||
| 20260506212013 | 0 | 0.0 | 0.0 | 0.00 | 0.01 | 0.01 | 1009.3 | ||
| 20260506211528 | 0 | 0.0 | 0.0 | 0.00 | 0.01 | 0.01 | 1009.4 | ||
| 20260506211010 | 0 | 0.0 | 0.0 | 0.00 | 0.01 | 0.01 | 1009.4 | ||
| 20260506210509 | 0 | 0.0 | 0.0 | 0.00 | 0.01 | 0.01 | 1009.4 | ||
| 20260506210033 | 0 | 0.0 | 0.0 | 0.00 | 0.01 | 0.01 | 1009.5 | ||
| 20260506205509 | 0 | 0.0 | 0.0 | 0.00 | 0.01 | 0.01 | 1009.4 | ||
| 20260506205011 | 0 | 0.0 | 0.0 | 0.00 | 0.01 | 0.01 | 1009.6 | ||
| 20260506204545 | 0 | 0.0 | 0.0 | 0.00 | 0.01 | 0.01 | 1009.8 | ||
| 20260506204013 | 0 | 0.0 | 0.0 | 0.00 | 0.01 | 0.01 | 1009.8 | ||
| 20260506203513 | 0 | 0.0 | 0.0 | 0.00 | 0.01 | 0.01 | 1009.8 | ||
| 20260506203030 | 0 | 0.0 | 0.0 | 0.00 | 0.01 | 0.01 | 1009.8 | ||
| 20260506202507 | 0 | 0.0 | 0.0 | 0.00 | 0.01 | 0.01 | 1009.9 | ||
| 20260506202012 | 0 | 0.0 | 0.0 | 0.00 | 0.01 | 0.01 | 1010.0 | ||
| 20260506201532 | 0 | 0.0 | 0.0 | 0.00 | 0.01 | 0.01 | 1010.0 | ||
| 20260506201008 | 0 | 0.0 | 0.0 | 0.00 | 0.01 | 0.01 | 1010.0 | ||
| 20260506200508 | 0 | 0.0 | 0.0 | 0.00 | 0.01 | 0.01 | 1009.9 | ||
| 20260506200028 | 0 | 0.0 | 0.0 | 0.00 | 0.01 | 0.01 | 1009.9 | ||
| 20260506195509 | 0 | 0.0 | 0.0 | 0.00 | 0.01 | 0.01 | 1009.9 | ||
| 20260506195019 | 0 | 0.0 | 0.0 | 0.00 | 0.01 | 0.01 | 1009.8 | ||
| 20260506194526 | 0 | 0.0 | 0.0 | 0.00 | 0.01 | 0.01 | 1009.8 | ||
| 20260506194011 | 0 | 0.0 | 0.0 | 0.00 | 0.01 | 0.01 | 1009.8 | ||
| 20260506193509 | 0 | 0.0 | 0.0 | 0.00 | 0.01 | 0.01 | 1009.9 | ||
| 20260506193028 | 0 | 0.0 | 0.0 | 0.00 | 0.01 | 0.01 | 1010.0 | ||
| 20260506192507 | 0 | 0.0 | 0.0 | 0.00 | 0.01 | 0.01 | 1010.1 | ||
| 20260506192011 | 0 | 0.0 | 0.0 | 0.00 | 0.01 | 0.01 | 1010.2 | ||
| 20260506191528 | 0 | 0.0 | 0.0 | 0.00 | 0.01 | 0.01 | 1010.2 | ||
| 20260506191007 | 0 | 0.0 | 0.0 | 0.00 | 0.01 | 0.01 | 1010.3 | ||
| 20260506190511 | 0 | 0.0 | 0.0 | 0.00 | 0.01 | 0.01 | 1010.3 | ||
| 20260506190028 | 0 | 0.0 | 0.0 | 0.00 | 0.01 | 0.01 | 1010.4 | ||
| 20260506185510 | 0 | 0.0 | 0.0 | 0.00 | 0.01 | 0.01 | 1010.5 | ||
| 20260506185011 | 0 | 0.0 | 0.0 | 0.00 | 0.01 | 0.01 | 1010.7 | ||
| 20260506184527 | 0 | 0.0 | 0.0 | 0.00 | 0.01 | 0.01 | 1010.7 | ||
| 20260506184011 | 0 | 0.0 | 0.0 | 0.00 | 0.01 | 0.01 | 1010.9 | ||
| 20260506183509 | 0 | 0.0 | 0.0 | 0.00 | 0.01 | 0.01 | 1011.0 | ||
| 20260506183026 | 0 | 0.0 | 0.0 | 0.00 | 0.01 | 0.01 | 1011.2 | ||
| 20260506182510 | 0 | 0.0 | 0.0 | 0.00 | 0.01 | 0.01 | 1011.3 | ||
| 20260506182010 | 0 | 0.0 | 0.0 | 0.00 | 0.01 | 0.01 | 87 | 1011.5 | |
| 20260506181529 | 0 | 0.0 | 0.0 | 0.00 | 0.01 | 0.01 | 87 | 1011.6 | |
| 20260506181011 | 0 | 0.0 | 0.0 | 0.00 | 0.01 | 0.01 | 1011.9 | ||
| 20260506180510 | 0 | 0.0 | 0.0 | 0.00 | 0.01 | 0.01 | 1011.9 | ||
| 20260506180027 | 0 | 0.0 | 0.0 | 0.00 | 0.01 | 0.01 | 1011.8 | ||
| 20260506175511 | 0 | 0.0 | 0.0 | 0.00 | 0.01 | 0.01 | 1012.0 | ||
| 20260506175008 | 0 | 0.0 | 0.0 | 0.00 | 0.01 | 0.01 | 1012.1 | ||
| 20260506174528 | 0 | 0.0 | 0.0 | 0.00 | 0.01 | 0.01 | 1012.1 | ||
| 20260506174008 | 0 | 0.0 | 0.0 | 0.00 | 0.01 | 0.01 | 1012.1 | ||
| 20260506173510 | 0 | 0.0 | 0.0 | 0.00 | 0.01 | 0.01 | 1012.2 | ||
| 20260506173028 | 0 | 0.0 | 0.0 | 0.00 | 0.01 | 0.01 | 1012.3 | ||
| 20260506172510 | 0 | 0.0 | 0.0 | 0.00 | 0.01 | 0.01 | 1012.3 | ||
| 20260506172014 | 0 | 0.0 | 0.0 | 0.00 | 0.01 | 0.01 | 1012.4 | ||
| 20260506171537 | 0 | 0.0 | 0.0 | 0.00 | 0.01 | 0.01 | 1012.5 | ||
| 20260506171010 | 0 | 0.0 | 0.0 | 0.00 | 0.01 | 0.01 | 1012.3 | ||
| 20260506170512 | 0 | 0.0 | 0.0 | 0.00 | 0.01 | 0.01 | 1012.3 | ||
| 20260506170029 | 0 | 0.0 | 0.0 | 0.00 | 0.01 | 0.01 | 1012.4 | ||
| 20260506165508 | 0 | 0.0 | 0.0 | 0.00 | 0.01 | 0.01 | 1012.4 | ||
| 20260506165007 | 0 | 0.0 | 0.0 | 0.00 | 0.01 | 0.01 | 1012.2 | ||
| 20260506164527 | 0 | 0.0 | 0.0 | 0.00 | 0.01 | 0.01 | 1012.0 | ||
| 20260506163516 | 0 | 0.0 | 0.0 | 0.00 | 0.01 | 0.01 | 1011.9 | ||
| 20260506163027 | 0 | 0.0 | 0.0 | 0.00 | 0.01 | 0.01 | 1012.0 | ||
| 20260506162512 | 0 | 0.0 | 0.0 | 0.00 | 0.01 | 0.01 | 1012.1 | ||
| 20260506162015 | 0 | 0.0 | 0.0 | 0.00 | 0.01 | 0.01 | 1011.9 | ||
| 20260506161537 | 0 | 0.0 | 0.0 | 0.00 | 0.01 | 0.01 | 1011.9 | ||
| 20260506161010 | 0 | 0.0 | 0.0 | 0.00 | 0.01 | 0.01 | 1011.8 | ||
| 20260506160513 | 0 | 0.0 | 0.0 | 0.00 | 0.01 | 0.01 | 1011.9 | ||
| 20260506160041 | 0 | 0.0 | 0.0 | 0.00 | 0.01 | 0.01 | 1012.1 | ||
| 20260506155509 | 0 | 0.0 | 0.0 | 0.00 | 0.01 | 0.01 | 1011.9 | ||
| 20260506155012 | 0 | 0.0 | 0.0 | 0.00 | 0.01 | 0.01 | 1011.7 | ||
| 20260506154531 | 0 | 0.0 | 0.0 | 0.00 | 0.01 | 0.01 | 1011.8 | ||
| 20260506154012 | 0 | 0.0 | 0.0 | 0.00 | 0.01 | 0.01 | 1011.7 | ||
| 20260506153028 | 0 | 0.0 | 0.0 | 0.00 | 0.01 | 0.01 | 1011.9 | ||
| 20260506152012 | 0 | 0.0 | 0.0 | 0.00 | 0.01 | 0.01 | 1011.8 | ||
| 20260506151534 | 0 | 0.0 | 0.0 | 0.00 | 0.01 | 0.01 | 1011.8 | ||
| 20260506151013 | 0 | 0.0 | 0.0 | 0.00 | 0.01 | 0.01 | 1011.7 | ||
| 20260506150516 | 0 | 0.0 | 0.0 | 0.00 | 0.01 | 0.01 | 1011.5 | ||
| 20260506150031 | 0 | 0.0 | 0.0 | 0.00 | 0.01 | 0.01 | 1011.6 | ||
| 20260506145512 | 0 | 0.0 | 0.0 | 0.00 | 0.01 | 0.01 | 1011.4 | ||
| 20260506145012 | 0 | 0.0 | 0.0 | 0.00 | 0.01 | 0.01 | 1011.3 | ||
| 20260506144530 | 0 | 0.0 | 0.0 | 0.00 | 0.01 | 0.01 | 1011.3 | ||
| 20260506144018 | 0 | 0.0 | 0.0 | 0.00 | 0.01 | 0.01 | 1011.2 | ||
| 20260506143517 | 0 | 0.0 | 0.0 | 0.00 | 0.01 | 0.01 | 1011.4 | ||
| 20260506143041 | 0 | 0.0 | 0.0 | 0.00 | 0.01 | 0.01 | 1011.3 | ||
| 20260506141529 | 0 | 0.0 | 0.0 | 0.00 | 0.01 | 0.01 | 1011.3 | ||
| 20260506141008 | 0 | 0.0 | 0.0 | 0.00 | 0.01 | 0.01 | 1011.2 | ||
| 20260506140511 | 0 | 0.0 | 0.0 | 0.00 | 0.01 | 0.01 | 1011.2 | ||
| 20260506140033 | 0 | 0.0 | 0.0 | 0.00 | 0.01 | 0.01 | 1011.3 | ||
| 20260506135511 | 0 | 0.0 | 0.0 | 0.00 | 0.01 | 0.01 | 1011.3 | ||
| 20260506135009 | 0 | 0.0 | 0.0 | 0.00 | 0.01 | 0.01 | 1011.2 | ||
| 20260506134528 | 0 | 0.0 | 0.0 | 0.00 | 0.01 | 0.01 | 1011.2 | ||
| 20260506134013 | 0 | 0.0 | 0.0 | 0.00 | 0.01 | 0.01 | 1011.3 | ||
| 20260506133510 | 0 | 0.0 | 0.0 | 0.00 | 0.01 | 0.01 | 1011.3 | ||
| 20260506133030 | 0 | 0.0 | 0.0 | 0.00 | 0.01 | 0.01 | 1011.3 | ||
| 20260506132518 | 0 | 0.0 | 0.0 | 0.00 | 0.01 | 0.01 | 1011.3 | ||
| 20260506132009 | 0 | 0.0 | 0.0 | 0.00 | 0.01 | 0.01 | 1011.3 | ||
| 20260506131528 | 0 | 0.0 | 0.0 | 0.00 | 0.01 | 0.01 | 1011.3 | ||
| 20260506131010 | 0 | 0.0 | 0.0 | 0.00 | 0.01 | 0.01 | 1011.3 | ||
| 20260506130513 | 0 | 0.0 | 0.0 | 0.00 | 0.01 | 0.01 | 1011.2 | ||
| 20260506130027 | 0 | 0.0 | 0.0 | 0.00 | 0.01 | 0.01 | 1011.2 | ||
| 20260506125508 | 0 | 0.0 | 0.0 | 0.00 | 0.01 | 0.01 | 1011.2 | ||
| 20260506125011 | 0 | 0.0 | 0.0 | 0.00 | 0.01 | 0.01 | 1011.2 | ||
| 20260506124526 | 0 | 0.0 | 0.0 | 0.00 | 0.01 | 0.01 | 1011.2 | ||
| 20260506124010 | 0 | 0.0 | 0.0 | 0.00 | 0.01 | 0.01 | 1011.2 | ||
| 20260506123509 | 0 | 0.0 | 0.0 | 0.00 | 0.01 | 0.01 | 1011.2 | ||
| 20260506123028 | 74 | 1.0 | 5.0 | 0.00 | 0.01 | 0.01 | 91 | 1011.1 | |
| 20260506122512 | 74 | 22 | 2.0 | 5.0 | 0.00 | 0.01 | 0.01 | 91 | 1010.9 |
| 20260506122012 | 74 | 23 | 1.0 | 5.0 | 0.00 | 0.01 | 0.01 | 91 | 1010.8 |
| 20260506121510 | 74 | 20 | 1.0 | 5.0 | 0.00 | 0.01 | 0.01 | 91 | 1010.8 |
| 20260506121006 | 74 | 19 | 1.0 | 4.0 | 0.00 | 0.01 | 0.01 | 91 | 1010.8 |
| 20260506120510 | 74 | 20 | 1.0 | 4.0 | 0.00 | 0.01 | 0.01 | 91 | 1010.8 |
| 20260506120015 | 74 | 21 | 0.0 | 4.0 | 0.00 | 0.01 | 0.01 | 91 | 1010.7 |
| 20260506115508 | 74 | 24 | 1.0 | 5.0 | 0.00 | 0.01 | 0.01 | 91 | 1010.7 |
| 20260506115007 | 74 | 19 | 1.0 | 5.0 | 0.00 | 0.01 | 0.01 | 90 | 1010.6 |
| 20260506114539 | 74 | 19 | 2.0 | 5.0 | 0.00 | 0.01 | 0.01 | 90 | 1010.5 |
| 20260506114008 | 74 | 14 | 1.0 | 5.0 | 0.00 | 0.01 | 0.01 | 90 | 1010.3 |
| 20260506113512 | 74 | 25 | 2.0 | 5.0 | 0.00 | 0.01 | 0.01 | 90 | 1010.3 |
| 20260506113022 | 74 | 19 | 1.0 | 4.0 | 0.00 | 0.01 | 0.01 | 90 | 1010.3 |
| 20260506112509 | 74 | 23 | 1.0 | 5.0 | 0.00 | 0.01 | 0.01 | 90 | 1010.3 |
| 20260506112004 | 74 | 22 | 1.0 | 5.0 | 0.00 | 0.01 | 0.01 | 90 | 1010.3 |
| 20260506111508 | 74 | 24 | 1.0 | 5.0 | 0.00 | 0.01 | 0.01 | 90 | 1010.2 |
| 20260506111006 | 74 | 26 | 1.0 | 8.0 | 0.00 | 0.01 | 0.01 | 90 | 1010.2 |
| 20260506110511 | 74 | 22 | 2.0 | 8.0 | 0.00 | 0.01 | 0.01 | 90 | 1010.2 |
| 20260506110013 | 74 | 26 | 3.0 | 8.0 | 0.00 | 0.01 | 0.01 | 90 | 1010.1 |
| 20260506105511 | 74 | 25 | 1.0 | 5.0 | 0.00 | 0.01 | 0.01 | 90 | 1010.1 |
| 20260506105010 | 74 | 25 | 2.0 | 4.0 | 0.00 | 0.01 | 0.01 | 90 | 1010.2 |
| 20260506104519 | 74 | 23 | 0.0 | 4.0 | 0.00 | 0.01 | 0.01 | 90 | 1010.0 |
| 20260506104010 | 74 | 17 | 1.0 | 4.0 | 0.00 | 0.01 | 0.01 | 90 | 1010.0 |
| 20260506103508 | 74 | 19 | 1.0 | 4.0 | 0.00 | 0.01 | 0.01 | 90 | 1010.1 |
| 20260506102511 | 74 | 22 | 1.0 | 5.0 | 0.00 | 0.01 | 0.01 | 90 | 1010.0 |
| 20260506102010 | 74 | 22 | 1.0 | 5.0 | 0.00 | 0.01 | 0.01 | 90 | 1010.0 |
| 20260506101543 | 74 | 19 | 1.0 | 5.0 | 0.00 | 0.01 | 0.01 | 90 | 1010.0 |
| 20260506101015 | 74 | 22 | 2.0 | 5.0 | 0.00 | 0.01 | 0.01 | 90 | 1010.0 |
| 20260506100505 | 74 | 24 | 1.0 | 0.0 | 0.00 | 0.01 | 0.01 | 90 | 1009.9 |
| 20260506100029 | 74 | 0.0 | 0.0 | 0.00 | 0.01 | 0.01 | 1009.9 | ||
| 20260506095512 | 74 | 2.0 | 6.0 | 0.00 | 0.01 | 0.01 | 90 | 1010.0 | |
| 20260506094517 | 74 | 22 | 2.0 | 8.0 | 0.00 | 0.01 | 0.01 | 90 | 1009.9 |
| 20260506093514 | 74 | 23 | 1.0 | 12.0 | 0.00 | 0.01 | 0.01 | 90 | 1009.9 |
| 20260506092510 | 74 | 25 | 2.0 | 8.0 | 0.00 | 0.01 | 0.01 | 90 | 1009.7 |
| 20260506092014 | 74 | 20 | 2.0 | 8.0 | 0.00 | 0.01 | 0.01 | 90 | 1009.7 |
| 20260506091525 | 74 | 26 | 3.0 | 7.0 | 0.00 | 0.01 | 0.01 | 90 | 1009.8 |
| 20260506091010 | 74 | 24 | 3.0 | 7.0 | 0.00 | 0.01 | 0.01 | 90 | 1009.8 |
| 20260506090507 | 74 | 16 | 1.0 | 5.0 | 0.00 | 0.01 | 0.01 | 90 | 1009.7 |
| 20260506090025 | 74 | 23 | 2.0 | 5.0 | 0.00 | 0.01 | 0.01 | 90 | 1009.7 |
| 20260506085509 | 74 | 22 | 2.0 | 5.0 | 0.00 | 0.01 | 0.01 | 90 | 1009.8 |
| 20260506085012 | 75 | 20 | 3.0 | 5.0 | 0.00 | 0.01 | 0.01 | 90 | 1009.8 |
| 20260506084529 | 74 | 18 | 2.0 | 6.0 | 0.00 | 0.01 | 0.01 | 90 | 1009.8 |
| 20260506084009 | 75 | 22 | 3.0 | 7.0 | 0.00 | 0.01 | 0.01 | 90 | 1009.7 |
| 20260506083508 | 75 | 17 | 3.0 | 10.0 | 0.00 | 0.01 | 0.01 | 90 | 1009.8 |
| 20260506082511 | 75 | 19 | 2.0 | 10.0 | 0.00 | 0.01 | 0.01 | 90 | 1009.7 |
| 20260506082016 | 75 | 23 | 3.0 | 10.0 | 0.00 | 0.01 | 0.01 | 90 | 1009.7 |
| 20260506080516 | 75 | 15 | 2.0 | 6.0 | 0.00 | 0.01 | 0.01 | 89 | 1009.7 |